Newark, NJ

2:07 AM EST on January 20, 2017 (GMT -0500)
Newark International

Weather History for KEWR - November, 2011

Change the Weather History Date:

Monday, November 7, 2011

  Actual Average Record
Temperature  
Mean Temperature 52 °F 50 °F  
Max Temperature 67 °F 58 °F 78 °F (1938)
Min Temperature 36 °F 42 °F 28 °F (1931)
Degree Days  
Heating Degree Days 13 15  
Month to date heating degree days 119 101  
Since 1 July heating degree days 365 422  
Cooling Degree Days 0 0  
Month to date cooling degree days 0 0  
Year to date cooling degree days 1585 1191  
Growing Degree Days 1 (Base 50)    
Moisture  
Dew Point 40 °F    
Average Humidity 64    
Maximum Humidity 93    
Minimum Humidity 34    
Precipitation  
Precipitation 0.00 in 0.11 in 1.77 in (1932)
Month to date precipitation 0.00 0.82  
Year to date precipitation 61.87 39.61  
Snow  
Snow 0.00 in 0.00 in 5.70 in (2012)
Month to date snowfall 0.0 0.0  
Since 1 July snowfall 5.2 0.0  
Snow Depth 0.00 in    
Sea Level Pressure  
Sea Level Pressure 30.33 in    
Wind  
Wind Speed 6 mph (SW)    
Max Wind Speed 13 mph    
Max Gust Speed 16 mph    
Visibility 8 miles    
Events      
T = Trace of Precipitation, MM = Missing Value Source: NWS Daily Summary

Daily Weather History Graph

Daily Weather History Graph

Search for Another Location

Airport or City:

Trip Planner

Search our weather history database for the weather conditions in past years. The results will help you decide how hot, cold, wet, or windy it might be!

Date:

Astronomy

Nov. 07, 2011 Rise Set
Actual Time 6:33 AM EST 4:46 PM EST
Civil Twilight 6:04 AM EST 5:15 PM EST
Nautical Twilight 5:32 AM EST 5:47 PM EST
Astronomical Twilight 5:00 AM EST 6:19 PM EST
Moon 2:56 PM EST (11/7) 3:33 AM EST (11/7)
Length of Visible Light 11h 10m
Length of Day
10h 12m
Waxing Gibbous, 91% of the Moon is Illuminated
Nov 7
Waxing Gibbous
Nov 10
Full
Nov 18
Last Quarter
Nov 25
New
Dec 2
First Quarter

Hourly Weather History & Observations

Time (EST) Temp. Windchill Dew Point Humidity Pressure Visibility Wind Dir Wind Speed Gust Speed Precip Events Conditions
12:51 AM 42.1 °F 40.2 °F 36.0 °F 79% 30.39 in 10.0 mi West 3.5 mph - N/A   Clear
1:51 AM 42.1 °F - 37.0 °F 82% 30.38 in 10.0 mi Calm Calm - N/A   Clear
2:51 AM 41.0 °F - 36.0 °F 82% 30.37 in 10.0 mi Calm Calm - N/A   Clear
3:51 AM 39.9 °F - 36.0 °F 86% 30.36 in 10.0 mi Calm Calm - N/A   Clear
4:51 AM 39.0 °F - 35.1 °F 86% 30.37 in 10.0 mi Calm Calm - N/A   Clear
5:51 AM 36.0 °F 31.1 °F 33.1 °F 89% 30.37 in 10.0 mi SSW 5.8 mph - N/A   Clear
6:51 AM 37.9 °F 35.5 °F 36.0 °F 93% 30.37 in 9.0 mi SSW 3.5 mph - N/A   Partly Cloudy
7:42 AM 41.0 °F 35.2 °F 39.2 °F 93% 30.38 in 5.0 mi SW 9.2 mph - N/A   Scattered Clouds
7:44 AM 41.0 °F 35.8 °F 39.2 °F 93% 30.37 in 0.2 mi SW 8.1 mph - N/A   Scattered Clouds
7:51 AM 41.0 °F 36.4 °F 39.9 °F 96% 30.38 in 0.2 mi SW 6.9 mph - N/A   Scattered Clouds
7:54 AM 41.0 °F 35.8 °F 39.2 °F 93% 30.38 in 0.2 mi SW 8.1 mph - N/A   Mostly Cloudy
8:10 AM 42.8 °F 38.0 °F 41.0 °F 93% 30.38 in 0.2 mi WSW 8.1 mph - N/A   Mostly Cloudy
8:23 AM 42.8 °F 38.6 °F 42.8 °F 100% 30.37 in 1.0 mi SW 6.9 mph - N/A   Mostly Cloudy
8:34 AM 44.6 °F 42.2 °F 42.8 °F 93% 30.37 in 4.0 mi SW 4.6 mph - N/A   Partly Cloudy
8:51 AM 46.9 °F - 43.0 °F 86% 30.36 in 6.0 mi SW 6.9 mph - N/A   Scattered Clouds
9:51 AM 51.1 °F - 43.0 °F 74% 30.35 in 7.0 mi SW 8.1 mph - N/A   Scattered Clouds
10:51 AM 55.9 °F - 43.0 °F 62% 30.33 in 9.0 mi SW 9.2 mph - N/A   Scattered Clouds
11:51 AM 60.1 °F - 42.1 °F 51% 30.30 in 10.0 mi SW 9.2 mph - N/A   Scattered Clouds
12:51 PM 62.1 °F - 43.0 °F 50% 30.28 in 10.0 mi WSW 4.6 mph - N/A   Mostly Cloudy
1:51 PM 64.9 °F - 39.9 °F 40% 30.27 in 10.0 mi WSW 9.2 mph - N/A   Scattered Clouds
2:51 PM 66.2 °F - 37.4 °F 35% 30.25 in 10.0 mi SW 8.1 mph - N/A   Scattered Clouds
3:51 PM 66.9 °F - 39.9 °F 37% 30.25 in 10.0 mi WSW 9.2 mph - N/A   Scattered Clouds
4:51 PM 64.4 °F - 38.3 °F 38% 30.25 in 10.0 mi WSW 9.2 mph - N/A   Scattered Clouds
5:51 PM 59.0 °F - 42.1 °F 53% 30.26 in 10.0 mi SW 6.9 mph - N/A   Scattered Clouds
6:51 PM 55.9 °F - 44.1 °F 64% 30.27 in 10.0 mi SW 6.9 mph - N/A   Partly Cloudy
7:51 PM 55.0 °F - 44.1 °F 67% 30.27 in 10.0 mi SW 8.1 mph - N/A   Clear
8:51 PM 51.1 °F - 44.1 °F 77% 30.28 in 9.0 mi SW 5.8 mph - N/A   Clear
9:51 PM 51.1 °F - 43.0 °F 74% 30.27 in 9.0 mi SW 5.8 mph - N/A   Clear
10:51 PM 52.0 °F - 44.1 °F 74% 30.27 in 10.0 mi SW 5.8 mph - N/A   Clear
11:51 PM 50.0 °F - 42.8 °F 76% 30.26 in 10.0 mi SSW 4.6 mph - N/A   Clear